Zurück zum Katalog

USA 366

AktivMilitärVLEO
NORAD 59826·PAYLOAD·🇺🇸 United States

Gestartet May 22, 2024 von Vandenberg Space Force Base

Loading…

Nächste Überflüge (nächste 24 Stunden)

TLE

VeraltetSource: Mike McCants

Epoche: Aug 25, 2026, 20:20 UTC

1 59826U 24096N   26237.84743998 0.00000000  00000-0  00000-0 0    06
2 59826  70.0170 137.0430 0003000  49.3246 310.6753 14.96713175    05

Verfolge USA 366 in Echtzeit mit AllMySat

Download on the App Store